Previsão horária em Cerquilho

Hoje, 25 Julho, Domingo

Tempo Temperatura Precipitação Vento Pressão Humidade
00:00 +14°C° 0 mm 1 m/s 716 mmHg 49%
01:00 +13°C° 0 mm 1 m/s 715 mmHg 51%
02:00 +13°C° 0 mm 1 m/s 715 mmHg 53%
03:00 +13°C° 0 mm 1 m/s 715 mmHg 55%
04:00 +12°C° 0 mm 1 m/s 715 mmHg 56%
05:00 +11°C° 0 mm 1 m/s 714 mmHg 58%
06:00 +11°C° 0 mm 1 m/s 714 mmHg 59%
07:00 +14°C° 0 mm 1 m/s 715 mmHg 51%
08:00 +17°C° 0 mm 2 m/s 716 mmHg 43%
09:00 +19°C° 0 mm 2 m/s 717 mmHg 34%
10:00 +22°C° 0 mm 3 m/s 717 mmHg 31%
11:00 +26°C° 0 mm 4 m/s 717 mmHg 27%
12:00 +29°C° 0 mm 4 m/s 717 mmHg 23%
13:00 +29°C° 0 mm 4 m/s 716 mmHg 21%
14:00 +30°C° 0 mm 3 m/s 715 mmHg 19%
15:00 +31°C° 0 mm 3 m/s 714 mmHg 18%
16:00 +28°C° 0 mm 3 m/s 714 mmHg 21%
17:00 +26°C° 0 mm 2 m/s 713 mmHg 24%
18:00 +23°C° 0 mm 2 m/s 713 mmHg 27%
19:00 +21°C° 0 mm 2 m/s 713 mmHg 28%
20:00 +21°C° 0 mm 1 m/s 714 mmHg 30%
21:00 +19°C° 0 mm 1 m/s 714 mmHg 32%
22:00 +18°C° 0 mm 1 m/s 714 mmHg 35%
23:00 +16°C° 0 mm 1 m/s 714 mmHg 38%

Amanhã, 26 Julho, Segunda-feira

Tempo Temperatura Precipitação Vento Pressão Humidade
00:00 +15°C° 0 mm 1 m/s 714 mmHg 40%
01:00 +14°C° 0 mm 1 m/s 714 mmHg 43%
02:00 +14°C° 0 mm 1 m/s 714 mmHg 46%
03:00 +13°C° 0 mm 1 m/s 713 mmHg 48%
04:00 +13°C° 0 mm 1 m/s 713 mmHg 50%
05:00 +13°C° 0 mm 1 m/s 713 mmHg 52%
06:00 +12°C° 0 mm 1 m/s 713 mmHg 54%
07:00 +15°C° 0 mm 2 m/s 714 mmHg 46%
08:00 +18°C° 0 mm 3 m/s 715 mmHg 39%
09:00 +21°C° 0 mm 3 m/s 715 mmHg 32%
10:00 +23°C° 0 mm 4 m/s 715 mmHg 27%
11:00 +27°C° 0 mm 4 m/s 715 mmHg 23%
12:00 +30°C° 0 mm 4 m/s 715 mmHg 19%
13:00 +32°C° 0 mm 4 m/s 714 mmHg 18%
14:00 +33°C° 0 mm 4 m/s 713 mmHg 17%
15:00 +33°C° 0 mm 3 m/s 712 mmHg 15%
16:00 +30°C° 0 mm 3 m/s 712 mmHg 18%
17:00 +27°C° 0 mm 3 m/s 712 mmHg 21%
18:00 +25°C° 0 mm 2 m/s 711 mmHg 25%
19:00 +23°C° 0 mm 2 m/s 712 mmHg 27%
20:00 +21°C° 0 mm 1 m/s 712 mmHg 30%
21:00 +20°C° 0 mm 1 m/s 712 mmHg 33%
22:00 +19°C° 0 mm 1 m/s 712 mmHg 34%
23:00 +18°C° 0 mm 1 m/s 712 mmHg 36%

Depois de amanhã, 27 Julho, Terça-feira

Tempo Temperatura Precipitação Vento Pressão Humidade
00:00 +16°C° 0 mm 2 m/s 712 mmHg 37%
01:00 +15°C° 0 mm 2 m/s 712 mmHg 39%
02:00 +15°C° 0 mm 2 m/s 712 mmHg 41%
03:00 +14°C° 0 mm 1 m/s 712 mmHg 43%
04:00 +14°C° 0 mm 2 m/s 711 mmHg 45%
05:00 +13°C° 0 mm 2 m/s 711 mmHg 47%
06:00 +13°C° 0 mm 2 m/s 711 mmHg 49%
07:00 +16°C° 0 mm 2 m/s 712 mmHg 43%
08:00 +19°C° 0 mm 2 m/s 712 mmHg 37%
09:00 +21°C° 0 mm 3 m/s 713 mmHg 31%
10:00 +25°C° 0 mm 3 m/s 713 mmHg 27%
11:00 +29°C° 0 mm 4 m/s 712 mmHg 23%
12:00 +33°C° 0 mm 5 m/s 712 mmHg 19%
13:00 +34°C° 0 mm 5 m/s 711 mmHg 18%
14:00 +34°C° 0 mm 5 m/s 710 mmHg 17%
15:00 +35°C° 0 mm 6 m/s 710 mmHg 16%
16:00 +33°C° 0 mm 4 m/s 709 mmHg 19%
17:00 +30°C° 0 mm 3 m/s 709 mmHg 22%
18:00 +27°C° 0 mm 2 m/s 709 mmHg 25%
19:00 +25°C° 0 mm 3 m/s 709 mmHg 36%
20:00 +22°C° 0 mm 4 m/s 709 mmHg 48%
21:00 +20°C° 0 mm 5 m/s 710 mmHg 59%
22:00 +19°C° 0 mm 5 m/s 710 mmHg 69%
23:00 +17°C° 0 mm 5 m/s 710 mmHg 79%

28 Julho, Quarta-feira

Tempo Temperatura Precipitação Vento Pressão Humidade
00:00 +15°C° 0 mm 5 m/s 710 mmHg 89%
01:00 +15°C° 0 mm 5 m/s 710 mmHg 87%
02:00 +15°C° 0 mm 5 m/s 710 mmHg 85%
03:00 +15°C° 0 mm 5 m/s 710 mmHg 84%
04:00 +15°C° 0 mm 5 m/s 710 mmHg 85%
05:00 +15°C° 0 mm 5 m/s 710 mmHg 85%
06:00 +15°C° 0 mm 4 m/s 711 mmHg 86%
07:00 +15°C° 0 mm 5 m/s 711 mmHg 83%
08:00 +15°C° 0 mm 5 m/s 712 mmHg 80%
09:00 +15°C° 0 mm 5 m/s 712 mmHg 78%
10:00 +15°C° 0 mm 5 m/s 712 mmHg 75%
11:00 +15°C° 0 mm 4 m/s 712 mmHg 72%
12:00 +15°C° 0 mm 4 m/s 712 mmHg 69%
13:00 +14°C° 0.5 mm 4 m/s 712 mmHg 75%
14:00 +13°C° 0.5 mm 5 m/s 712 mmHg 81%
15:00 +10°C° 0.5 mm 5 m/s 712 mmHg 86%
16:00 +11°C° 0.4 mm 4 m/s 712 mmHg 88%
17:00 +11°C° 0.4 mm 3 m/s 713 mmHg 89%
18:00 +12°C° 0.4 mm 2 m/s 713 mmHg 91%
19:00 +12°C° 0.5 mm 2 m/s 714 mmHg 91%
20:00 +12°C° 0.5 mm 2 m/s 714 mmHg 91%
21:00 +12°C° 0.5 mm 2 m/s 715 mmHg 90%
22:00 +12°C° 0 mm 1 m/s 715 mmHg 91%
23:00 +11°C° 0 mm 1 m/s 715 mmHg 92%

29 Julho, Quinta-feira

Tempo Temperatura Precipitação Vento Pressão Humidade
00:00 +11°C° 0 mm 1 m/s 715 mmHg 93%
01:00 +10°C° 0 mm 2 m/s 715 mmHg 92%
02:00 +9°C° 0 mm 2 m/s 715 mmHg 91%
03:00 +9°C° 0 mm 2 m/s 715 mmHg 90%
04:00 +8°C° 0 mm 3 m/s 715 mmHg 87%
05:00 +7°C° 0 mm 3 m/s 716 mmHg 83%
06:00 +4°C° 0 mm 3 m/s 716 mmHg 79%
07:00 +5°C° 0 mm 4 m/s 717 mmHg 72%
08:00 +6°C° 0 mm 5 m/s 717 mmHg 64%
09:00 +5°C° 0 mm 6 m/s 718 mmHg 57%
10:00 +8°C° 0 mm 5 m/s 718 mmHg 46%
11:00 +10°C° 0 mm 5 m/s 718 mmHg 35%
12:00 +13°C° 0 mm 4 m/s 718 mmHg 24%
13:00 +14°C° 0 mm 4 m/s 717 mmHg 21%
14:00 +15°C° 0 mm 4 m/s 717 mmHg 18%
15:00 +17°C° 0 mm 4 m/s 716 mmHg 15%
16:00 +14°C° 0 mm 4 m/s 716 mmHg 20%
17:00 +12°C° 0 mm 4 m/s 716 mmHg 25%
18:00 +10°C° 0 mm 4 m/s 717 mmHg 29%
19:00 +8°C° 0 mm 4 m/s 717 mmHg 35%
20:00 +6°C° 0 mm 4 m/s 717 mmHg 40%
21:00 +5°C° 0 mm 4 m/s 718 mmHg 45%
22:00 +4°C° 0 mm 4 m/s 718 mmHg 49%
23:00 +3°C° 0 mm 3 m/s 718 mmHg 52%

30 Julho, Sexta-feira

Tempo Temperatura Precipitação Vento Pressão Humidade
00:00 +4°C° 0 mm 2 m/s 718 mmHg 56%
01:00 +3°C° 0 mm 2 m/s 718 mmHg 61%
02:00 +3°C° 0 mm 2 m/s 718 mmHg 66%
03:00 +3°C° 0 mm 2 m/s 717 mmHg 71%
04:00 +3°C° 0 mm 2 m/s 717 mmHg 78%
05:00 +2°C° 0 mm 3 m/s 717 mmHg 84%
06:00 +2°C° 0 mm 3 m/s 717 mmHg 90%
07:00 +5°C° 0 mm 4 m/s 718 mmHg 78%
08:00 +7°C° 0 mm 5 m/s 718 mmHg 66%
09:00 +10°C° 0 mm 6 m/s 719 mmHg 54%
10:00 +13°C° 0 mm 6 m/s 719 mmHg 47%
11:00 +15°C° 0 mm 5 m/s 719 mmHg 39%
12:00 +17°C° 0 mm 5 m/s 718 mmHg 31%
13:00 +19°C° 0 mm 5 m/s 718 mmHg 31%
14:00 +19°C° 0 mm 5 m/s 717 mmHg 31%
15:00 +20°C° 0 mm 5 m/s 717 mmHg 31%
16:00 +16°C° 0 mm 6 m/s 717 mmHg 41%
17:00 +14°C° 0 mm 6 m/s 717 mmHg 50%
18:00 +11°C° 0 mm 6 m/s 717 mmHg 59%
19:00 +10°C° 0 mm 6 m/s 718 mmHg 67%
20:00 +8°C° 0 mm 6 m/s 718 mmHg 74%
21:00 +7°C° 0 mm 5 m/s 719 mmHg 81%
22:00 +7°C° 0 mm 5 m/s 719 mmHg 82%
23:00 +6°C° 0 mm 5 m/s 719 mmHg 84%
Mostrar mais

Necessitamos do seu Consentimento

A Meteoprog e os seus Fornecedores de Serviços podem armazenar e aceder a dados pessoais como cookies, identificadores do dispositivo ou outras tecnologias semelhantes existentes no seu dispositivo e processar estes dados para personalizar conteúdos e anúncios, assim como funcionalidades nas redes sociais e análise de tráfego.

  • Armazenar e/ou aceder a informações no seu dispositivo

    Os cookies, identificadores do dispositivo ou outras informações podem ser armazenados ou acedidos no seu dispositivo, para os fins acima indicados.

  • Anúncios e conteúdos personalizados, medição de anúncios e conteúdos, dados sobre o público-alvo e desenvolvimento de produtos

    Os anúncios e os conteúdos podem ser personalizados com base num perfil. Podem ser adicionados dados adicionais para uma maior personalização dos anúncios e dos conteúdos. A eficácia dos anúncios e dos conteúdos pode ser medida. Podem ser obtidas informações sobre o público que visualizou os anúncios e os conteúdos. Estes dados podem ser usados para desenvolver ou melhorar sistemas, softwares ou a experiência do utilizador.

Ao clicar em "Eu concordo”, permitirá o uso de cookies, identificadores do dispositivo e web beacons mencionados ou outras tecnologias semelhantes. As configurações do navegador do seu dispositivo podem ser alteradas.

Para certos fins, podem ser invocados interesses legítimos ao invés de consentimento. Pode ler mais informação sobre este assunto na nossa Política de Privacidade e Cookies.